Location: Bachas
(43.2439°N, 0.9375°E)
Time: 07:38:02
(UTC+00:00)

H-2A R/B - Pass Details

Date: 18 February 2020
Orbit: 530 x 652 km, 98.3° (Epoch: 30 March)

Event Time Altitude Azimuth Distance (km) Brightness Sun altitude
Rises 05:25:25 0° 3° (N) 2,904 6.0 -16.2°
Reaches altitude 10° 05:27:46 10° 353° (N) 2,011 5.1 -15.8°
Maximum altitude 05:31:38 31° 292° (WNW) 1,117 3.3 -15.1°
Enters shadow 05:33:50 20° 245° (WSW) 1,474 4.0 -14.7°
